Patuxent River, MD

1:15 PM EDT on July 28, 2017 (GMT -0400)
Patuxent River Naval Air Station

Weather History for KNHK - January, 2013

Change the Weather History Date:

Saturday, January 12, 2013

  Actual Average Record
Temperature  
Mean Temperature 46 °F -  
Max Temperature 50 °F 38 °F 70 °F (2017)
Min Temperature 42 °F 21 °F 9 °F (1988)
Degree Days  
Heating Degree Days 19    
Moisture  
Dew Point 43 °F    
Average Humidity 93    
Maximum Humidity 100    
Minimum Humidity 83    
Precipitation  
Precipitation 0.00 in - - ()
Sea Level Pressure  
Sea Level Pressure 30.14 in    
Wind  
Wind Speed 4 mph (NW)    
Max Wind Speed 7 mph    
Max Gust Speed -    
Visibility 2 miles    
Events Fog    
Averages and records for this station are not official NWS values.
T = Trace of Precipitation, MM = Missing Value Source: NWS Daily Summary

Daily Weather History Graph

Daily Weather History Graph

Search for Another Location

Airport or City:

Trip Planner

Search our weather history database for the weather conditions in past years. The results will help you decide how hot, cold, wet, or windy it might be!

Date:

Astronomy

Jan. 12, 2013 Rise Set
Actual Time 7:22 AM EST 5:06 PM EST
Civil Twilight 6:52 AM EST 5:35 PM EST
Nautical Twilight 6:20 AM EST 6:08 PM EST
Astronomical Twilight 5:48 AM EST 6:40 PM EST
Moon 7:40 AM EST (1/12) 6:31 PM EST (1/12)
Length of Visible Light 10h 42m
Length of Day
9h 44m
New Moon, 1% of the Moon is Illuminated
Jan 12
New Moon
Jan 18
First Quarter
Jan 26
Full
Feb 3
Last Quarter
Feb 10
New

Hourly Weather History & Observations

Time (EST) Temp. Windchill Dew Point Humidity Pressure Visibility Wind Dir Wind Speed Gust Speed Precip Events Conditions
12:52 AM 46.9 °F - 44.1 °F 90% 30.11 in 4.0 mi West 6.9 mph - N/A   Overcast
1:52 AM 46.0 °F 42.5 °F 44.1 °F 93% 30.12 in 5.0 mi West 6.9 mph - N/A   Overcast
2:52 AM 46.0 °F 43.1 °F 44.1 °F 93% 30.13 in 5.0 mi West 5.8 mph - N/A   Overcast
3:00 AM 46.4 °F 44.3 °F 44.6 °F 93% 30.12 in 1.8 mi WNW 4.6 mph - N/A   Overcast
3:09 AM 46.4 °F 43.5 °F 42.8 °F 87% 30.12 in 1.0 mi WNW 5.8 mph - N/A   Overcast
3:23 AM 44.6 °F 42.2 °F 42.8 °F 93% 30.12 in 1.8 mi WNW 4.6 mph - N/A   Overcast
3:32 AM 44.6 °F 42.2 °F 42.8 °F 93% 30.12 in 2.5 mi WNW 4.6 mph - N/A   Overcast
3:42 AM 44.6 °F 42.2 °F 42.8 °F 93% 30.13 in 4.0 mi WNW 4.6 mph - N/A   Overcast
3:52 AM 45.0 °F 43.5 °F 43.0 °F 93% 30.13 in 5.0 mi WNW 3.5 mph - N/A   Overcast
4:15 AM 44.6 °F 42.2 °F 42.8 °F 93% 30.12 in 2.0 mi NW 4.6 mph - N/A   Overcast
4:28 AM 44.6 °F 41.4 °F 42.8 °F 93% 30.11 in 1.2 mi NW 5.8 mph - N/A   Overcast
4:39 AM 44.6 °F 43.1 °F 42.8 °F 93% 30.11 in 0.8 mi NNW 3.5 mph - N/A   Mist
4:52 AM 44.1 °F - 43.0 °F 96% 30.12 in 0.8 mi Calm Calm - N/A   Mist
5:27 AM 44.6 °F - 42.8 °F 93% 30.13 in 0.5 mi Calm Calm - N/A Fog Fog
5:52 AM 44.1 °F - 43.0 °F 96% 30.12 in 0.5 mi Calm Calm - N/A Fog Fog
6:15 AM 44.6 °F - 42.8 °F 93% 30.14 in 0.5 mi Calm Calm - N/A Fog Fog
6:52 AM 44.1 °F 41.5 °F 42.1 °F 93% 30.14 in 0.5 mi NNE 4.6 mph - N/A Fog Fog
7:52 AM 43.0 °F 39.5 °F 41.0 °F 93% 30.16 in 0.5 mi NE 5.8 mph - N/A Fog Fog
8:52 AM 44.1 °F 42.5 °F 42.1 °F 93% 30.17 in 0.2 mi North 3.5 mph - N/A Fog Fog
9:08 AM 42.8 °F 41.1 °F 42.8 °F 100% 30.17 in 0.5 mi WNW 3.5 mph - N/A Fog Fog
9:31 AM 44.6 °F 42.2 °F 42.8 °F 93% 30.17 in 1.5 mi NW 4.6 mph - N/A   Mist
9:52 AM 43.0 °F - 42.1 °F 97% 30.17 in 1.5 mi Calm Calm - N/A   Mist
10:52 AM 44.1 °F - 42.1 °F 93% 30.17 in 1.0 mi Calm Calm - N/A   Mist
11:27 AM 44.6 °F - 42.8 °F 93% 30.16 in 3.0 mi Calm Calm - N/A   Overcast
11:52 AM 46.0 °F - 43.0 °F 89% 30.16 in 4.0 mi Calm Calm - N/A   Overcast
12:52 PM 48.0 °F - 44.1 °F 86% 30.15 in 9.0 mi NW 5.8 mph - N/A   Overcast
1:52 PM 50.0 °F - 45.0 °F 83% 30.14 in 10.0 mi Calm Calm - N/A   Overcast
2:52 PM 46.0 °F 44.8 °F 43.0 °F 89% 30.14 in 4.0 mi ESE 3.5 mph - N/A   Overcast
3:52 PM 45.0 °F 42.6 °F 43.0 °F 93% 30.14 in 0.8 mi ESE 4.6 mph - N/A   Overcast
4:52 PM 44.1 °F 42.5 °F 42.1 °F 93% 30.15 in 0.8 mi SSE 3.5 mph - N/A   Overcast
5:52 PM 43.0 °F - 41.0 °F 93% 30.16 in 2.0 mi Calm Calm - N/A   Overcast
5:59 PM 42.8 °F - 41.0 °F 93% 30.16 in 1.8 mi Calm Calm - N/A   Mostly Cloudy
6:09 PM 42.8 °F - 41.0 °F 93% 30.16 in 3.0 mi Calm Calm - N/A   Mostly Cloudy
6:41 PM 46.4 °F - 44.6 °F 93% 30.16 in 1.8 mi Calm Calm - N/A   Overcast
6:49 PM 46.4 °F 45.2 °F 44.6 °F 93% 30.16 in 1.0 mi South 3.5 mph - N/A   Overcast
6:52 PM 46.0 °F - 44.1 °F 93% 30.16 in 1.0 mi Calm Calm - N/A   Overcast
7:25 PM 44.6 °F - 42.8 °F 93% 30.16 in 0.5 mi Calm Calm - N/A Fog Fog
7:52 PM 44.1 °F 42.5 °F 43.0 °F 96% 30.15 in 0.5 mi ENE 3.5 mph - N/A Fog Fog
7:59 PM 44.6 °F - 42.8 °F 93% 30.15 in 0.2 mi Calm Calm - N/A Fog Fog
8:21 PM 44.6 °F 42.2 °F 42.8 °F 93% 30.14 in 0.2 mi East 4.6 mph - N/A Fog Fog
8:52 PM 44.1 °F - 42.1 °F 93% 30.15 in 0.2 mi Calm Calm - N/A Fog Fog
9:28 PM 42.8 °F 41.1 °F 41.0 °F 93% 30.15 in 0.2 mi ESE 3.5 mph - N/A Fog Fog
9:52 PM 43.0 °F - 42.1 °F 97% 30.15 in 0.2 mi Calm Calm - N/A Fog Fog
10:31 PM 44.6 °F - 42.8 °F 93% 30.15 in 0.5 mi Calm Calm - N/A Fog Fog
10:38 PM 42.8 °F - 42.8 °F 100% 30.15 in 0.2 mi Calm Calm - N/A Fog Fog
10:52 PM 43.0 °F 40.3 °F 41.0 °F 93% 30.15 in 0.5 mi SW 4.6 mph - N/A Fog Fog
11:49 PM 42.8 °F - 41.0 °F 93% 30.14 in 0.8 mi Calm Calm - N/A   Mist
11:52 PM 43.0 °F - 41.0 °F 93% 30.14 in 0.8 mi Calm Calm - N/A   Mist